Spokane, WA
on Sunday, January 6, 2013

Sunday
Previous Day Next Day
Daily Summary
 ActualAverageRecord
Temperature
Mean Temperature °F 28°F  
Max Temperature 30°F 33°F 53°F (1914)
Min Temperature 25°F 23°F -20°F (1899)
Degree Days
Heating Degree Days 37 37  
Month to date heating degree days 262 224  
Since 1 July heating degree days 2687 3058  
Cooling Degree Days 0 0  
Month to date cooling degree days 0 0  
Year to date cooling degree days 0 0  
Moisture
Dew Point 25°F   
Average Humidity 69    
Maximum Humidity 100    
Minimum Humidity 37    
Precipitation
Precipitation 0.13 in 0.07 in 0.80 in (1948)
Month to date precipitation 0.15 0.39  
Year to date precipitation 0.15 0.39  
Snow
Snow 2.00 in 0.40 in 10.40 in (1950)
Month to date snowfall 2.3 2.8  
Since 1 July snowfall 26.3 24.9  
Snow Depth 5.00 in   
Wind
Wind Speed 5 mph   
Max Wind Speed 14 mph   
Max Gust Speed 15 mph   
Visibility 4 miles   
Events Snow   

Key: T is trace of precipitation, MM is missing value
Source: NWS Daily Summary
Time(PST)TemperatureDew PointHumidity Pressure Visibility Wind DirectionWind SpeedGust SpeedPrecipitationEvents Conditions
12:16 AM 24.8°F 23.0°F 93% 30.14 in 6.0 miles Calm Calm - N/A   Overcast
12:53 AM 25.0°F 23.0°F 92% 30.19 in 6.0 miles South 3.5 mph - 0.00 in   Overcast
1:53 AM 25.0°F 23.0°F 92% 30.19 in 6.0 miles Calm Calm - N/A   Overcast
2:53 AM 26.1°F 23.0°F 88% 30.20 in 9.0 miles Calm Calm - N/A   Overcast
3:36 AM 26.6°F 24.8°F 93% 30.12 in 1.5 miles Calm Calm - N/A Snow Light Snow
3:53 AM 26.1°F 24.1°F 92% 30.19 in 1.0 miles Calm Calm - 0.01 in Snow Light Snow
4:53 AM 25.0°F 24.1°F 96% 30.19 in 1.5 miles Calm Calm - 0.03 in Snow Light Snow
5:53 AM 26.1°F 24.1°F 92% 30.17 in 2.0 miles SSE 4.6 mph - 0.01 in Snow Light Snow
6:29 AM 26.6°F 24.8°F 93% 30.09 in 3.0 miles Calm Calm - 0.00 in   Overcast
6:53 AM 26.1°F 25.0°F 96% 30.17 in 3.0 miles Calm Calm - 0.00 in   Overcast
7:53 AM 27.0°F 25.0°F 92% 30.18 in 7.0 miles South 5.8 mph - N/A   Overcast
8:53 AM 27.0°F 24.1°F 89% 30.21 in 8.0 miles SSW 4.6 mph - N/A   Overcast
9:29 AM 28.4°F 24.8°F 86% 30.13 in 8.0 miles SSW 5.8 mph - N/A   Overcast
9:50 AM 26.6°F 3.2°F 37% 30.35 in 10.0 miles NE 9.2 mph - N/A   Clear
9:53 AM 27.0°F 25.0°F 92% 30.22 in 8.0 miles SSW 6.9 mph - N/A   Overcast
10:53 AM 28.0°F 25.0°F 88% 30.21 in 8.0 miles SSW 6.9 mph - N/A   Overcast
11:53 AM 28.0°F 25.0°F 88% 30.18 in 8.0 miles SSW 9.2 mph - N/A   Overcast
12:53 PM 28.0°F 25.0°F 88% 30.15 in 8.0 miles SSW 5.8 mph - N/A   Overcast
1:53 PM 28.0°F 25.0°F 88% 30.14 in 8.0 miles WSW 4.6 mph - N/A   Overcast
2:53 PM 27.0°F 25.0°F 92% 30.14 in 8.0 miles SW 8.1 mph - N/A   Overcast
3:53 PM 28.0°F 26.1°F 92% 30.15 in 7.0 miles SSW 10.4 mph - N/A   Overcast
4:34 PM 26.6°F 26.6°F 100% 30.08 in 2.0 miles SW 5.8 mph - N/A   Overcast
4:53 PM 27.0°F 26.1°F 96% 30.15 in 0.5 miles South 4.6 mph - N/A   Overcast
5:53 PM 28.0°F 27.0°F 96% 30.14 in 0.5 miles SSE 5.8 mph - N/A   Overcast
6:53 PM 28.0°F 28.0°F 100% 30.14 in 0.5 miles South 6.9 mph - N/A   Overcast
7:24 PM 28.4°F 26.6°F 93% 30.06 in 2.0 miles South 4.6 mph - N/A   Overcast
7:53 PM 28.9°F 27.0°F 92% 30.13 in 2.0 miles South 4.6 mph - N/A   Overcast
8:19 PM 28.4°F 26.6°F 93% 30.06 in 7.0 miles South 4.6 mph - N/A   Overcast
8:53 PM 28.9°F 27.0°F 92% 30.14 in 7.0 miles Calm Calm - N/A   Overcast
9:53 PM 30.0°F 28.0°F 92% 30.13 in 3.0 miles SSW 5.8 mph - 0.00 in Snow Light Snow
10:03 PM 30.2°F 28.4°F 93% 30.05 in 1.5 miles SSW 5.8 mph - 0.00 in Snow Light Snow
10:53 PM 30.0°F 28.9°F 96% 30.11 in 0.8 miles South 8.1 mph - 0.04 in Snow Light Snow
11:53 PM 30.0°F 28.9°F 96% 30.09 in 0.8 miles South 5.8 mph - 0.04 in Snow Light Snow
Moon Phase
Jan. 06 Jan. 11 Jan. 18 Jan. 26 Feb. 03
Sunrise:07:37 AM (PST) Moon Rise:01:48 AM (PST)1/6
Sunset:04:14 PM (PST) Moon Set:11:53 AM (PST)1/6

Copyright © 2014 The Weather Underground, Inc.